Location: Unspecified
(41.4410°N, 0.0000°E)
Time: 00:40:06
(UTC+00:00)

FORMOSAT 3C - Visible Passes

Search period start: 04 April 2026 00:00
Search period end: 14 April 2026 00:00
Orbit: 763 x 812 km, 72.0° (Epoch: 29 March)

Date Brightness Start Highest point End Pass type
(mag) Time Alt. Az. Time Alt. Az. Time Alt. Az.
4 Apr ? 01:52:05 24° N 01:52:05 24° N 01:54:20 10° NNE visible
5 Apr ? 01:21:10 22° NNE 01:21:10 22° NNE 01:22:59 10° NNE visible
5 Apr ? 03:01:48 12° NW 03:01:48 12° NW 03:03:13 10° NNW visible
6 Apr ? 00:50:13 18° NNE 00:50:13 18° NNE 00:51:32 10° NNE visible
6 Apr ? 02:30:51 15° NNW 02:30:51 15° NNW 02:32:53 10° NNW visible
7 Apr ? 00:19:14 14° NE 00:19:14 14° NE 00:19:58 10° NNE visible
7 Apr ? 01:59:53 18° NNW 01:59:53 18° NNW 02:02:01 10° N visible
7 Apr ? 23:48:15 10° NE 23:48:15 10° NE 23:48:15 10° NE visible
8 Apr ? 01:28:53 20° NNW 01:28:53 20° NNW 01:30:57 10° N visible
9 Apr ? 00:57:52 21° N 00:57:52 21° N 00:59:44 10° N visible
10 Apr ? 00:26:48 20° NNE 00:26:48 20° NNE 00:28:25 10° NNE visible
10 Apr ? 02:07:27 10° NW 02:07:27 10° NW 02:08:02 10° NNW visible
10 Apr ? 23:55:44 17° NNE 23:55:44 17° NNE 23:56:59 10° NNE visible
11 Apr ? 01:36:22 14° NNW 01:36:22 14° NNW 01:38:06 10° NNW visible
11 Apr ? 23:24:37 15° NNE 23:24:37 15° NNE 23:25:27 10° NNE visible
12 Apr ? 01:05:16 17° NNW 01:05:16 17° NNW 01:07:20 10° N visible
12 Apr ? 22:53:29 11° NE 22:53:29 11° NE 22:53:47 10° NE visible
13 Apr ? 00:34:07 20° NNW 00:34:07 20° NNW 00:36:18 10° N visible
